owner,sensor,date,latitude,longitude,vertical_datum,sea_water_practical_salinity,qcFlag 
SCCF RECON,ioos:station:SCCF:13:1,2011-04-01T00:00:00Z,26.5255,-82.0032,2.24,32.73,1111122 
SCCF RECON,ioos:station:SCCF:13:1,2011-04-01T01:00:00Z,26.5255,-82.0032,2.37,32.15,1111122 
SCCF RECON,ioos:station:SCCF:13:1,2011-04-01T02:00:00Z,26.5255,-82.0032,2.45,32.48,1111122 
SCCF RECON,ioos:station:SCCF:13:1,2011-04-01T03:00:00Z,26.5255,-82.0032,2.514,33.12,1111122 
SCCF RECON,ioos:station:SCCF:13:1,2011-04-01T04:00:00Z,26.5255,-82.0032,2.55,33.28,1111122 
SCCF RECON,ioos:station:SCCF:13:1,2011-04-01T05:00:00Z,26.5255,-82.0032,2.566,33.4,1111122 
SCCF RECON,ioos:station:SCCF:13:1,2011-04-01T06:00:00Z,26.5255,-82.0032,2.5,33.65,1111122 
SCCF RECON,ioos:station:SCCF:13:1,2011-04-01T07:00:00Z,26.5255,-82.0032,2.42,33.63,1111122 
SCCF RECON,ioos:station:SCCF:13:1,2011-04-01T08:00:00Z,26.5255,-82.0032,2.36,33.23,1111122 
SCCF RECON,ioos:station:SCCF:13:1,2011-04-01T09:00:00Z,26.5255,-82.0032,2.3,33.0,1111122 
SCCF RECON,ioos:station:SCCF:13:1,2011-04-01T10:00:00Z,26.5255,-82.0032,2.25,32.32,1111122 
SCCF RECON,ioos:station:SCCF:13:1,2011-04-01T11:00:00Z,26.5255,-82.0032,2.2,31.19,1111122 
SCCF RECON,ioos:station:SCCF:13:1,2011-04-01T12:00:00Z,26.5255,-82.0032,2.19,30.51,1111122 
SCCF RECON,ioos:station:SCCF:13:1,2011-04-01T13:00:00Z,26.5255,-82.0032,2.25,29.86,1111122 
SCCF RECON,ioos:station:SCCF:13:1,2011-04-01T14:00:00Z,26.5255,-82.0032,2.369,29.55,1111122 
SCCF RECON,ioos:station:SCCF:13:1,2011-04-01T15:00:00Z,26.5255,-82.0032,2.43,30.59,1111122 
SCCF RECON,ioos:station:SCCF:13:1,2011-04-01T16:00:00Z,26.5255,-82.0032,2.46,31.42,1111122 
SCCF RECON,ioos:station:SCCF:13:1,2011-04-01T17:00:00Z,26.5255,-82.0032,2.475,32.06,1111122 
SCCF RECON,ioos:station:SCCF:13:1,2011-04-01T18:00:00Z,26.5255,-82.0032,2.42,32.52,1111122 
SCCF RECON,ioos:station:SCCF:13:1,2011-04-01T19:00:00Z,26.5255,-82.0032,2.342,32.97,1111122 
SCCF RECON,ioos:station:SCCF:13:1,2011-04-01T20:00:00Z,26.5255,-82.0032,2.272,32.35,1111122 
SCCF RECON,ioos:station:SCCF:13:1,2011-04-01T21:00:00Z,26.5255,-82.0032,2.203,31.45,1111122 
SCCF RECON,ioos:station:SCCF:13:1,2011-04-01T22:00:00Z,26.5255,-82.0032,2.14,30.56,1111122 
SCCF RECON,ioos:station:SCCF:13:1,2011-04-01T23:00:00Z,26.5255,-82.0032,2.08,29.46,1111122 
SCCF RECON,ioos:station:SCCF:13:1,2011-04-02T00:00:00Z,26.5255,-82.0032,2.04,29.07,1111122 
SCCF RECON,ioos:station:SCCF:13:1,2011-04-02T01:00:00Z,26.5255,-82.0032,2.06,27.77,1111122 
SCCF RECON,ioos:station:SCCF:13:1,2011-04-02T02:00:00Z,26.5255,-82.0032,2.171,27.23,1111122 
SCCF RECON,ioos:station:SCCF:13:1,2011-04-02T03:00:00Z,26.5255,-82.0032,2.29,27.74,1111122 
SCCF RECON,ioos:station:SCCF:13:1,2011-04-02T04:00:00Z,26.5255,-82.0032,2.36,29.47,1111122 
SCCF RECON,ioos:station:SCCF:13:1,2011-04-02T05:00:00Z,26.5255,-82.0032,2.41,30.02,1111122 
SCCF RECON,ioos:station:SCCF:13:1,2011-04-02T06:00:00Z,26.5255,-82.0032,2.42,31.23,1111122 
SCCF RECON,ioos:station:SCCF:13:1,2011-04-02T07:00:00Z,26.5255,-82.0032,2.35,32.17,1111122 
SCCF RECON,ioos:station:SCCF:13:1,2011-04-02T08:00:00Z,26.5255,-82.0032,2.27,32.49,1111122 
SCCF RECON,ioos:station:SCCF:13:1,2011-04-02T09:00:00Z,26.5255,-82.0032,2.2,31.16,1111122 
SCCF RECON,ioos:station:SCCF:13:1,2011-04-02T10:00:00Z,26.5255,-82.0032,2.16,29.82,1111122 
SCCF RECON,ioos:station:SCCF:13:1,2011-04-02T11:00:00Z,26.5255,-82.0032,2.11,28.54,1111122 
SCCF RECON,ioos:station:SCCF:13:1,2011-04-02T12:00:00Z,26.5255,-82.0032,2.103,27.79,1111122 
SCCF RECON,ioos:station:SCCF:13:1,2011-04-02T13:00:00Z,26.5255,-82.0032,2.15,27.22,1111122 
SCCF RECON,ioos:station:SCCF:13:1,2011-04-02T14:00:00Z,26.5255,-82.0032,2.282,27.37,1111122 
SCCF RECON,ioos:station:SCCF:13:1,2011-04-02T15:00:00Z,26.5255,-82.0032,2.371,29.34,1111122 
SCCF RECON,ioos:station:SCCF:13:1,2011-04-02T16:00:00Z,26.5255,-82.0032,2.434,30.42,1111122 
SCCF RECON,ioos:station:SCCF:13:1,2011-04-02T17:00:00Z,26.5255,-82.0032,2.461,31.57,1111122 
SCCF RECON,ioos:station:SCCF:13:1,2011-04-02T18:00:00Z,26.5255,-82.0032,2.461,32.56,1111122 
SCCF RECON,ioos:station:SCCF:13:1,2011-04-02T19:00:00Z,26.5255,-82.0032,2.41,32.95,1111122 
SCCF RECON,ioos:station:SCCF:13:1,2011-04-02T20:00:00Z,26.5255,-82.0032,2.31,33.01,1111122 
SCCF RECON,ioos:station:SCCF:13:1,2011-04-02T21:00:00Z,26.5255,-82.0032,2.227,32.51,1111122 
SCCF RECON,ioos:station:SCCF:13:1,2011-04-02T22:00:00Z,26.5255,-82.0032,2.159,31.6,1111122 
SCCF RECON,ioos:station:SCCF:13:1,2011-04-02T23:00:00Z,26.5255,-82.0032,2.099,30.61,1111122 
SCCF RECON,ioos:station:SCCF:13:1,2011-04-03T00:00:00Z,26.5255,-82.0032,2.047,29.26,1111122 
SCCF RECON,ioos:station:SCCF:13:1,2011-04-03T01:00:00Z,26.5255,-82.0032,2.029,28.29,1111122 
SCCF RECON,ioos:station:SCCF:13:1,2011-04-03T02:00:00Z,26.5255,-82.0032,2.11,27.55,1111122 
SCCF RECON,ioos:station:SCCF:13:1,2011-04-03T03:00:00Z,26.5255,-82.0032,1.0,-9999.0,1111122 
SCCF RECON,ioos:station:SCCF:13:1,2011-04-03T04:00:00Z,26.5255,-82.0032,2.33,29.27,1111122 
SCCF RECON,ioos:station:SCCF:13:1,2011-04-03T05:00:00Z,26.5255,-82.0032,2.39,30.34,1111122 
SCCF RECON,ioos:station:SCCF:13:1,2011-04-03T06:00:00Z,26.5255,-82.0032,2.43,31.06,1111122 
SCCF RECON,ioos:station:SCCF:13:1,2011-04-03T07:00:00Z,26.5255,-82.0032,2.41,32.04,1111122 
SCCF RECON,ioos:station:SCCF:13:1,2011-04-03T08:00:00Z,26.5255,-82.0032,2.33,32.4,1111122 
SCCF RECON,ioos:station:SCCF:13:1,2011-04-03T09:00:00Z,26.5255,-82.0032,2.258,32.24,1111122 
SCCF RECON,ioos:station:SCCF:13:1,2011-04-03T10:00:00Z,26.5255,-82.0032,2.205,31.26,1111122 
SCCF RECON,ioos:station:SCCF:13:1,2011-04-03T11:00:00Z,26.5255,-82.0032,2.16,29.75,1111122 
SCCF RECON,ioos:station:SCCF:13:1,2011-04-03T12:00:00Z,26.5255,-82.0032,2.11,28.35,1111122 
SCCF RECON,ioos:station:SCCF:13:1,2011-04-03T13:00:00Z,26.5255,-82.0032,2.08,27.54,1111122 
SCCF RECON,ioos:station:SCCF:13:1,2011-04-03T14:00:00Z,26.5255,-82.0032,2.13,27.13,1111122 
SCCF RECON,ioos:station:SCCF:13:1,2011-04-03T15:00:00Z,26.5255,-82.0032,2.251,26.7,1111122 
SCCF RECON,ioos:station:SCCF:13:1,2011-04-03T16:00:00Z,26.5255,-82.0032,2.33,28.35,1111122 
SCCF RECON,ioos:station:SCCF:13:1,2011-04-03T17:00:00Z,26.5255,-82.0032,2.378,29.77,1111122 
SCCF RECON,ioos:station:SCCF:13:1,2011-04-03T18:00:00Z,26.5255,-82.0032,2.408,30.68,1111122 
SCCF RECON,ioos:station:SCCF:13:1,2011-04-03T19:00:00Z,26.5255,-82.0032,2.379,32.1,1111122 
SCCF RECON,ioos:station:SCCF:13:1,2011-04-03T20:00:00Z,26.5255,-82.0032,2.275,32.45,1111122 
SCCF RECON,ioos:station:SCCF:13:1,2011-04-03T21:00:00Z,26.5255,-82.0032,2.17,32.32,1111122 
SCCF RECON,ioos:station:SCCF:13:1,2011-04-03T22:00:00Z,26.5255,-82.0032,2.099,30.65,1111122 
SCCF RECON,ioos:station:SCCF:13:1,2011-04-03T23:00:00Z,26.5255,-82.0032,2.04,28.38,1111122 
SCCF RECON,ioos:station:SCCF:13:1,2011-04-04T00:00:00Z,26.5255,-82.0032,1.995,27.62,1111122 
SCCF RECON,ioos:station:SCCF:13:1,2011-04-04T01:00:00Z,26.5255,-82.0032,1.97,26.83,1111122 
SCCF RECON,ioos:station:SCCF:13:1,2011-04-04T02:00:00Z,26.5255,-82.0032,2.04,26.19,1111122 
SCCF RECON,ioos:station:SCCF:13:1,2011-04-04T03:00:00Z,26.5255,-82.0032,2.17,26.09,1111122 
SCCF RECON,ioos:station:SCCF:13:1,2011-04-04T04:00:00Z,26.5255,-82.0032,2.26,27.9,1111122 
SCCF RECON,ioos:station:SCCF:13:1,2011-04-04T05:00:00Z,26.5255,-82.0032,2.34,29.23,1111122 
SCCF RECON,ioos:station:SCCF:13:1,2011-04-04T06:00:00Z,26.5255,-82.0032,2.4,30.86,1111122 
SCCF RECON,ioos:station:SCCF:13:1,2011-04-04T07:00:00Z,26.5255,-82.0032,2.42,32.36,1111122 
SCCF RECON,ioos:station:SCCF:13:1,2011-04-04T08:00:00Z,26.5255,-82.0032,2.39,32.51,1111122 
SCCF RECON,ioos:station:SCCF:13:1,2011-04-04T09:00:00Z,26.5255,-82.0032,2.328,32.56,1111122 
SCCF RECON,ioos:station:SCCF:13:1,2011-04-04T10:00:00Z,26.5255,-82.0032,2.26,32.7,1111122 
SCCF RECON,ioos:station:SCCF:13:1,2011-04-04T11:00:00Z,26.5255,-82.0032,2.22,32.49,1111122 
SCCF RECON,ioos:station:SCCF:13:1,2011-04-04T12:00:00Z,26.5255,-82.0032,2.19,31.17,1111122 
SCCF RECON,ioos:station:SCCF:13:1,2011-04-04T13:00:00Z,26.5255,-82.0032,2.21,28.75,1111122 
SCCF RECON,ioos:station:SCCF:13:1,2011-04-04T14:00:00Z,26.5255,-82.0032,2.3,28.52,1111122 
SCCF RECON,ioos:station:SCCF:13:1,2011-04-04T16:00:00Z,26.5255,-82.0032,2.461,31.9,1111122 
SCCF RECON,ioos:station:SCCF:13:1,2011-04-04T17:00:00Z,26.5255,-82.0032,2.52,32.78,1111122 
SCCF RECON,ioos:station:SCCF:13:1,2011-04-04T18:00:00Z,26.5255,-82.0032,2.549,33.63,1111122 
SCCF RECON,ioos:station:SCCF:13:1,2011-04-04T19:00:00Z,26.5255,-82.0032,2.551,33.74,1111122 
SCCF RECON,ioos:station:SCCF:13:1,2011-04-04T20:00:00Z,26.5255,-82.0032,2.52,33.78,1111122 
SCCF RECON,ioos:station:SCCF:13:1,2011-04-04T21:00:00Z,26.5255,-82.0032,2.416,33.79,1111122 
SCCF RECON,ioos:station:SCCF:13:1,2011-04-04T22:00:00Z,26.5255,-82.0032,2.311,33.75,1111122 
SCCF RECON,ioos:station:SCCF:13:1,2011-04-04T23:00:00Z,26.5255,-82.0032,2.229,33.4,1111122 
SCCF RECON,ioos:station:SCCF:13:1,2011-04-05T00:00:00Z,26.5255,-82.0032,2.151,33.54,1111122 
SCCF RECON,ioos:station:SCCF:13:1,2011-04-05T01:00:00Z,26.5255,-82.0032,2.099,32.32,1111122 
SCCF RECON,ioos:station:SCCF:13:1,2011-04-05T02:00:00Z,26.5255,-82.0032,2.098,31.3,1111122 
SCCF RECON,ioos:station:SCCF:13:1,2011-04-05T03:00:00Z,26.5255,-82.0032,2.198,30.7,1111122 
SCCF RECON,ioos:station:SCCF:13:1,2011-04-05T04:00:00Z,26.5255,-82.0032,2.33,30.57,1111122 
SCCF RECON,ioos:station:SCCF:13:1,2011-04-05T05:00:00Z,26.5255,-82.0032,2.39,32.28,1111122 
SCCF RECON,ioos:station:SCCF:13:1,2011-04-05T06:00:00Z,26.5255,-82.0032,2.442,32.51,1111122 
SCCF RECON,ioos:station:SCCF:13:1,2011-04-05T07:00:00Z,26.5255,-82.0032,2.492,33.1,1111122 
SCCF RECON,ioos:station:SCCF:13:1,2011-04-05T08:00:00Z,26.5255,-82.0032,2.513,33.74,1111122 
SCCF RECON,ioos:station:SCCF:13:1,2011-04-05T09:00:00Z,26.5255,-82.0032,2.49,33.78,1111122 
SCCF RECON,ioos:station:SCCF:13:1,2011-04-05T10:00:00Z,26.5255,-82.0032,2.429,33.76,1111122 
SCCF RECON,ioos:station:SCCF:13:1,2011-04-05T11:00:00Z,26.5255,-82.0032,2.369,33.51,1111122 
SCCF RECON,ioos:station:SCCF:13:1,2011-04-05T12:00:00Z,26.5255,-82.0032,2.333,33.71,1111122 
SCCF RECON,ioos:station:SCCF:13:1,2011-04-05T13:00:00Z,26.5255,-82.0032,2.351,33.56,1111122 
SCCF RECON,ioos:station:SCCF:13:1,2011-04-05T14:00:00Z,26.5255,-82.0032,2.414,33.4,1111122 
SCCF RECON,ioos:station:SCCF:13:1,2011-04-05T15:00:00Z,26.5255,-82.0032,2.482,33.55,1111122 
SCCF RECON,ioos:station:SCCF:13:1,2011-04-05T16:00:00Z,26.5255,-82.0032,2.574,33.6,1111122 
SCCF RECON,ioos:station:SCCF:13:1,2011-04-05T17:00:00Z,26.5255,-82.0032,2.65,33.67,1111122 
SCCF RECON,ioos:station:SCCF:13:1,2011-04-05T18:00:00Z,26.5255,-82.0032,2.629,33.79,1111122 
SCCF RECON,ioos:station:SCCF:13:1,2011-04-05T19:00:00Z,26.5255,-82.0032,2.519,33.86,1111122 
SCCF RECON,ioos:station:SCCF:13:1,2011-04-05T20:00:00Z,26.5255,-82.0032,2.57,33.84,1111122 
SCCF RECON,ioos:station:SCCF:13:1,2011-04-05T21:00:00Z,26.5255,-82.0032,2.48,33.81,1111122 
SCCF RECON,ioos:station:SCCF:13:1,2011-04-05T22:00:00Z,26.5255,-82.0032,2.371,33.56,1111122 
SCCF RECON,ioos:station:SCCF:13:1,2011-04-05T23:00:00Z,26.5255,-82.0032,2.29,33.49,1111122 
SCCF RECON,ioos:station:SCCF:13:1,2011-04-06T00:00:00Z,26.5255,-82.0032,2.222,33.14,1111122 
SCCF RECON,ioos:station:SCCF:13:1,2011-04-06T01:00:00Z,26.5255,-82.0032,2.14,32.12,1111122 
SCCF RECON,ioos:station:SCCF:13:1,2011-04-06T02:00:00Z,26.5255,-82.0032,2.076,31.72,1111122 
SCCF RECON,ioos:station:SCCF:13:1,2011-04-06T03:00:00Z,26.5255,-82.0032,2.08,30.41,1111122 
SCCF RECON,ioos:station:SCCF:13:1,2011-04-06T04:00:00Z,26.5255,-82.0032,2.079,29.59,1111122 
SCCF RECON,ioos:station:SCCF:13:1,2011-04-06T05:00:00Z,26.5255,-82.0032,2.13,28.73,1111122 
SCCF RECON,ioos:station:SCCF:13:1,2011-04-06T06:00:00Z,26.5255,-82.0032,2.28,28.5,1111122 
SCCF RECON,ioos:station:SCCF:13:1,2011-04-06T07:00:00Z,26.5255,-82.0032,2.324,30.1,1111122 
SCCF RECON,ioos:station:SCCF:13:1,2011-04-06T08:00:00Z,26.5255,-82.0032,2.32,31.24,1111122 
SCCF RECON,ioos:station:SCCF:13:1,2011-04-06T09:00:00Z,26.5255,-82.0032,2.34,31.72,1111122 
SCCF RECON,ioos:station:SCCF:13:1,2011-04-06T10:00:00Z,26.5255,-82.0032,2.3,31.82,1111122 
SCCF RECON,ioos:station:SCCF:13:1,2011-04-06T11:00:00Z,26.5255,-82.0032,2.212,31.74,1111122 
SCCF RECON,ioos:station:SCCF:13:1,2011-04-06T12:00:00Z,26.5255,-82.0032,2.16,30.07,1111122 
SCCF RECON,ioos:station:SCCF:13:1,2011-04-06T13:00:00Z,26.5255,-82.0032,2.14,29.08,1111122 
SCCF RECON,ioos:station:SCCF:13:1,2011-04-06T14:00:00Z,26.5255,-82.0032,2.19,27.93,1111122 
SCCF RECON,ioos:station:SCCF:13:1,2011-04-06T15:00:00Z,26.5255,-82.0032,2.269,27.22,1111122 
SCCF RECON,ioos:station:SCCF:13:1,2011-04-06T16:00:00Z,26.5255,-82.0032,2.363,28.39,1111122 
SCCF RECON,ioos:station:SCCF:13:1,2011-04-06T17:00:00Z,26.5255,-82.0032,2.433,31.17,1111122 
SCCF RECON,ioos:station:SCCF:13:1,2011-04-06T18:00:00Z,26.5255,-82.0032,2.481,32.24,1111122 
SCCF RECON,ioos:station:SCCF:13:1,2011-04-06T19:00:00Z,26.5255,-82.0032,2.522,33.4,1111122 
SCCF RECON,ioos:station:SCCF:13:1,2011-04-06T20:00:00Z,26.5255,-82.0032,2.52,33.62,1111122 
SCCF RECON,ioos:station:SCCF:13:1,2011-04-06T21:00:00Z,26.5255,-82.0032,2.46,33.71,1111122 
SCCF RECON,ioos:station:SCCF:13:1,2011-04-06T22:00:00Z,26.5255,-82.0032,2.354,33.7,1111122 
SCCF RECON,ioos:station:SCCF:13:1,2011-04-06T23:00:00Z,26.5255,-82.0032,2.269,33.53,1111122 
SCCF RECON,ioos:station:SCCF:13:1,2011-04-07T00:00:00Z,26.5255,-82.0032,2.192,32.47,1111122 
SCCF RECON,ioos:station:SCCF:13:1,2011-04-07T01:00:00Z,26.5255,-82.0032,2.12,30.44,1111122 
SCCF RECON,ioos:station:SCCF:13:1,2011-04-07T02:00:00Z,26.5255,-82.0032,2.06,30.15,1111122 
SCCF RECON,ioos:station:SCCF:13:1,2011-04-07T03:00:00Z,26.5255,-82.0032,2.022,29.08,1111122 
SCCF RECON,ioos:station:SCCF:13:1,2011-04-07T04:00:00Z,26.5255,-82.0032,2.06,28.42,1111122 
SCCF RECON,ioos:station:SCCF:13:1,2011-04-07T05:00:00Z,26.5255,-82.0032,2.169,27.91,1111122 
SCCF RECON,ioos:station:SCCF:13:1,2011-04-07T06:00:00Z,26.5255,-82.0032,2.24,28.35,1111122 
SCCF RECON,ioos:station:SCCF:13:1,2011-04-07T07:00:00Z,26.5255,-82.0032,2.289,30.07,1111122 
SCCF RECON,ioos:station:SCCF:13:1,2011-04-07T08:00:00Z,26.5255,-82.0032,2.31,30.67,1111122 
SCCF RECON,ioos:station:SCCF:13:1,2011-04-07T09:00:00Z,26.5255,-82.0032,2.33,31.89,1111122 
SCCF RECON,ioos:station:SCCF:13:1,2011-04-07T10:00:00Z,26.5255,-82.0032,2.32,32.53,1111122 
SCCF RECON,ioos:station:SCCF:13:1,2011-04-07T11:00:00Z,26.5255,-82.0032,2.288,32.87,1111122 
SCCF RECON,ioos:station:SCCF:13:1,2011-04-07T12:00:00Z,26.5255,-82.0032,2.28,33.22,1111122 
SCCF RECON,ioos:station:SCCF:13:1,2011-04-07T13:00:00Z,26.5255,-82.0032,2.28,33.17,1111122 
SCCF RECON,ioos:station:SCCF:13:1,2011-04-07T14:00:00Z,26.5255,-82.0032,2.29,32.96,1111122 
SCCF RECON,ioos:station:SCCF:13:1,2011-04-07T15:00:00Z,26.5255,-82.0032,2.364,32.51,1111122 
SCCF RECON,ioos:station:SCCF:13:1,2011-04-07T16:00:00Z,26.5255,-82.0032,2.46,33.25,1111122 
SCCF RECON,ioos:station:SCCF:13:1,2011-04-07T17:00:00Z,26.5255,-82.0032,2.534,33.35,1111122 
SCCF RECON,ioos:station:SCCF:13:1,2011-04-07T18:00:00Z,26.5255,-82.0032,2.58,33.82,1111122 
SCCF RECON,ioos:station:SCCF:13:1,2011-04-07T19:00:00Z,26.5255,-82.0032,2.61,33.73,1111122 
SCCF RECON,ioos:station:SCCF:13:1,2011-04-07T20:00:00Z,26.5255,-82.0032,2.61,33.9,1111122 
SCCF RECON,ioos:station:SCCF:13:1,2011-04-07T21:00:00Z,26.5255,-82.0032,2.58,34.0,1111122 
SCCF RECON,ioos:station:SCCF:13:1,2011-04-07T22:00:00Z,26.5255,-82.0032,2.5,34.0,1111122 
SCCF RECON,ioos:station:SCCF:13:1,2011-04-07T23:00:00Z,26.5255,-82.0032,2.41,34.0,1111122 
SCCF RECON,ioos:station:SCCF:13:1,2011-04-08T00:00:00Z,26.5255,-82.0032,2.33,33.7,1111122 
SCCF RECON,ioos:station:SCCF:13:1,2011-04-08T01:00:00Z,26.5255,-82.0032,2.26,33.75,1111122 
SCCF RECON,ioos:station:SCCF:13:1,2011-04-08T02:00:00Z,26.5255,-82.0032,2.19,33.25,1111122 
SCCF RECON,ioos:station:SCCF:13:1,2011-04-08T03:00:00Z,26.5255,-82.0032,2.131,31.72,1111122 
SCCF RECON,ioos:station:SCCF:13:1,2011-04-08T04:00:00Z,26.5255,-82.0032,2.11,30.22,1111122 
SCCF RECON,ioos:station:SCCF:13:1,2011-04-08T05:00:00Z,26.5255,-82.0032,2.18,29.77,1111122 
SCCF RECON,ioos:station:SCCF:13:1,2011-04-08T06:00:00Z,26.5255,-82.0032,2.28,29.43,1111122 
SCCF RECON,ioos:station:SCCF:13:1,2011-04-08T07:00:00Z,26.5255,-82.0032,2.33,29.66,1111122 
SCCF RECON,ioos:station:SCCF:13:1,2011-04-08T08:00:00Z,26.5255,-82.0032,2.37,32.0,1111122 
SCCF RECON,ioos:station:SCCF:13:1,2011-04-08T09:00:00Z,26.5255,-82.0032,2.395,32.35,1111122 
SCCF RECON,ioos:station:SCCF:13:1,2011-04-08T10:00:00Z,26.5255,-82.0032,2.4,32.65,1111122 
SCCF RECON,ioos:station:SCCF:13:1,2011-04-08T11:00:00Z,26.5255,-82.0032,2.39,33.23,1111122 
SCCF RECON,ioos:station:SCCF:13:1,2011-04-08T12:00:00Z,26.5255,-82.0032,2.38,33.31,1111122 
SCCF RECON,ioos:station:SCCF:13:1,2011-04-08T13:00:00Z,26.5255,-82.0032,2.361,33.41,1111122 
SCCF RECON,ioos:station:SCCF:13:1,2011-04-08T14:00:00Z,26.5255,-82.0032,2.34,33.17,1111122 
SCCF RECON,ioos:station:SCCF:13:1,2011-04-08T15:00:00Z,26.5255,-82.0032,2.35,32.14,1111122 
SCCF RECON,ioos:station:SCCF:13:1,2011-04-08T16:00:00Z,26.5255,-82.0032,2.39,31.58,1111122 
SCCF RECON,ioos:station:SCCF:13:1,2011-04-08T17:00:00Z,26.5255,-82.0032,2.46,32.37,1111122 
SCCF RECON,ioos:station:SCCF:13:1,2011-04-08T18:00:00Z,26.5255,-82.0032,2.51,33.13,1111122 
SCCF RECON,ioos:station:SCCF:13:1,2011-04-08T19:00:00Z,26.5255,-82.0032,2.551,33.49,1111122 
SCCF RECON,ioos:station:SCCF:13:1,2011-04-08T20:00:00Z,26.5255,-82.0032,2.58,33.75,1111122 
SCCF RECON,ioos:station:SCCF:13:1,2011-04-08T21:00:00Z,26.5255,-82.0032,2.58,33.97,1111122 
SCCF RECON,ioos:station:SCCF:13:1,2011-04-08T22:00:00Z,26.5255,-82.0032,2.53,34.04,1111122 
SCCF RECON,ioos:station:SCCF:13:1,2011-04-08T23:00:00Z,26.5255,-82.0032,2.45,34.03,1111122 
SCCF RECON,ioos:station:SCCF:13:1,2011-04-09T00:00:00Z,26.5255,-82.0032,2.36,33.96,1111122 
SCCF RECON,ioos:station:SCCF:13:1,2011-04-09T01:00:00Z,26.5255,-82.0032,2.3,33.49,1111122 
SCCF RECON,ioos:station:SCCF:13:1,2011-04-09T02:00:00Z,26.5255,-82.0032,2.23,33.14,1111122 
SCCF RECON,ioos:station:SCCF:13:1,2011-04-09T03:00:00Z,26.5255,-82.0032,2.162,31.54,1111122 
SCCF RECON,ioos:station:SCCF:13:1,2011-04-09T04:00:00Z,26.5255,-82.0032,2.11,30.29,1111122 
SCCF RECON,ioos:station:SCCF:13:1,2011-04-09T05:00:00Z,26.5255,-82.0032,2.1,29.48,1111122 
SCCF RECON,ioos:station:SCCF:13:1,2011-04-09T06:00:00Z,26.5255,-82.0032,2.18,29.12,1111122 
SCCF RECON,ioos:station:SCCF:13:1,2011-04-09T07:00:00Z,26.5255,-82.0032,2.261,28.95,1111122 
SCCF RECON,ioos:station:SCCF:13:1,2011-04-09T08:00:00Z,26.5255,-82.0032,2.32,29.27,1111122 
SCCF RECON,ioos:station:SCCF:13:1,2011-04-09T09:00:00Z,26.5255,-82.0032,2.36,31.06,1111122 
SCCF RECON,ioos:station:SCCF:13:1,2011-04-09T10:00:00Z,26.5255,-82.0032,2.4,31.61,1111122 
SCCF RECON,ioos:station:SCCF:13:1,2011-04-09T11:00:00Z,26.5255,-82.0032,2.41,32.39,1111122 
SCCF RECON,ioos:station:SCCF:13:1,2011-04-09T12:00:00Z,26.5255,-82.0032,2.43,33.37,1111122 
SCCF RECON,ioos:station:SCCF:13:1,2011-04-09T13:00:00Z,26.5255,-82.0032,2.427,33.55,1111122 
SCCF RECON,ioos:station:SCCF:13:1,2011-04-09T14:00:00Z,26.5255,-82.0032,2.421,33.4,1111122 
SCCF RECON,ioos:station:SCCF:13:1,2011-04-09T15:00:00Z,26.5255,-82.0032,2.421,33.67,1111122 
SCCF RECON,ioos:station:SCCF:13:1,2011-04-09T16:00:00Z,26.5255,-82.0032,2.45,33.56,1111122 
SCCF RECON,ioos:station:SCCF:13:1,2011-04-09T17:00:00Z,26.5255,-82.0032,2.5,33.62,1111122 
SCCF RECON,ioos:station:SCCF:13:1,2011-04-09T18:00:00Z,26.5255,-82.0032,2.568,33.68,1111122 
SCCF RECON,ioos:station:SCCF:13:1,2011-04-09T19:00:00Z,26.5255,-82.0032,2.601,33.73,1111122 
SCCF RECON,ioos:station:SCCF:13:1,2011-04-09T20:00:00Z,26.5255,-82.0032,2.624,33.86,1111122 
SCCF RECON,ioos:station:SCCF:13:1,2011-04-09T21:00:00Z,26.5255,-82.0032,2.63,34.09,1111122 
SCCF RECON,ioos:station:SCCF:13:1,2011-04-09T22:00:00Z,26.5255,-82.0032,2.61,34.12,1111122 
SCCF RECON,ioos:station:SCCF:13:1,2011-04-09T23:00:00Z,26.5255,-82.0032,2.55,34.15,1111122 
SCCF RECON,ioos:station:SCCF:13:1,2011-04-10T00:00:00Z,26.5255,-82.0032,2.48,34.12,1111122 
SCCF RECON,ioos:station:SCCF:13:1,2011-04-10T01:00:00Z,26.5255,-82.0032,2.4,33.55,1111122 
SCCF RECON,ioos:station:SCCF:13:1,2011-04-10T02:00:00Z,26.5255,-82.0032,2.321,33.54,1111122 
SCCF RECON,ioos:station:SCCF:13:1,2011-04-10T03:00:00Z,26.5255,-82.0032,2.24,32.5,1111122 
SCCF RECON,ioos:station:SCCF:13:1,2011-04-10T04:00:00Z,26.5255,-82.0032,2.163,31.03,1111122 
SCCF RECON,ioos:station:SCCF:13:1,2011-04-10T05:00:00Z,26.5255,-82.0032,2.11,29.81,1111122 
SCCF RECON,ioos:station:SCCF:13:1,2011-04-10T06:00:00Z,26.5255,-82.0032,2.092,29.1,1111122 
SCCF RECON,ioos:station:SCCF:13:1,2011-04-10T07:00:00Z,26.5255,-82.0032,2.14,28.7,1111122 
SCCF RECON,ioos:station:SCCF:13:1,2011-04-10T08:00:00Z,26.5255,-82.0032,2.22,28.38,1111122 
SCCF RECON,ioos:station:SCCF:13:1,2011-04-10T09:00:00Z,26.5255,-82.0032,2.28,28.37,1111122 
SCCF RECON,ioos:station:SCCF:13:1,2011-04-10T10:00:00Z,26.5255,-82.0032,2.34,30.12,1111122 
SCCF RECON,ioos:station:SCCF:13:1,2011-04-10T11:00:00Z,26.5255,-82.0032,2.371,31.04,1111122 
SCCF RECON,ioos:station:SCCF:13:1,2011-04-10T12:00:00Z,26.5255,-82.0032,2.391,31.69,1111122 
SCCF RECON,ioos:station:SCCF:13:1,2011-04-10T13:00:00Z,26.5255,-82.0032,2.41,32.34,1111122 
SCCF RECON,ioos:station:SCCF:13:1,2011-04-10T14:00:00Z,26.5255,-82.0032,2.428,33.05,1111122 
SCCF RECON,ioos:station:SCCF:13:1,2011-04-10T15:00:00Z,26.5255,-82.0032,2.442,33.36,1111122 
SCCF RECON,ioos:station:SCCF:13:1,2011-04-10T16:00:00Z,26.5255,-82.0032,2.442,33.55,1111122 
SCCF RECON,ioos:station:SCCF:13:1,2011-04-10T17:00:00Z,26.5255,-82.0032,2.45,33.63,1111122 
SCCF RECON,ioos:station:SCCF:13:1,2011-04-10T18:00:00Z,26.5255,-82.0032,2.493,33.67,1111122 
SCCF RECON,ioos:station:SCCF:13:1,2011-04-10T19:00:00Z,26.5255,-82.0032,2.534,33.73,1111122 
SCCF RECON,ioos:station:SCCF:13:1,2011-04-10T20:00:00Z,26.5255,-82.0032,2.591,33.8,1111122 
SCCF RECON,ioos:station:SCCF:13:1,2011-04-10T21:00:00Z,26.5255,-82.0032,2.62,33.95,1111122 
SCCF RECON,ioos:station:SCCF:13:1,2011-04-10T22:00:00Z,26.5255,-82.0032,2.631,34.08,1111122 
SCCF RECON,ioos:station:SCCF:13:1,2011-04-10T23:00:00Z,26.5255,-82.0032,2.622,34.15,1111122 
SCCF RECON,ioos:station:SCCF:13:1,2011-04-11T00:00:00Z,26.5255,-82.0032,2.58,34.16,1111122 
SCCF RECON,ioos:station:SCCF:13:1,2011-04-11T01:00:00Z,26.5255,-82.0032,2.51,34.16,1111122 
SCCF RECON,ioos:station:SCCF:13:1,2011-04-11T02:00:00Z,26.5255,-82.0032,2.437,33.55,1111122 
SCCF RECON,ioos:station:SCCF:13:1,2011-04-11T03:00:00Z,26.5255,-82.0032,2.36,33.39,1111122 
SCCF RECON,ioos:station:SCCF:13:1,2011-04-11T04:00:00Z,26.5255,-82.0032,2.28,32.43,1111122 
SCCF RECON,ioos:station:SCCF:13:1,2011-04-11T05:00:00Z,26.5255,-82.0032,2.195,31.22,1111122 
SCCF RECON,ioos:station:SCCF:13:1,2011-04-11T06:00:00Z,26.5255,-82.0032,2.13,30.12,1111122 
SCCF RECON,ioos:station:SCCF:13:1,2011-04-11T07:00:00Z,26.5255,-82.0032,2.108,29.82,1111122 
SCCF RECON,ioos:station:SCCF:13:1,2011-04-11T08:00:00Z,26.5255,-82.0032,2.15,29.21,1111122 
SCCF RECON,ioos:station:SCCF:13:1,2011-04-11T09:00:00Z,26.5255,-82.0032,2.221,28.77,1111122 
SCCF RECON,ioos:station:SCCF:13:1,2011-04-11T10:00:00Z,26.5255,-82.0032,2.29,28.55,1111122 
SCCF RECON,ioos:station:SCCF:13:1,2011-04-11T11:00:00Z,26.5255,-82.0032,2.34,30.16,1111122 
SCCF RECON,ioos:station:SCCF:13:1,2011-04-11T12:00:00Z,26.5255,-82.0032,2.378,30.82,1111122 
SCCF RECON,ioos:station:SCCF:13:1,2011-04-11T13:00:00Z,26.5255,-82.0032,2.41,31.51,1111122 
SCCF RECON,ioos:station:SCCF:13:1,2011-04-11T14:00:00Z,26.5255,-82.0032,2.44,32.48,1111122 
SCCF RECON,ioos:station:SCCF:13:1,2011-04-11T15:00:00Z,26.5255,-82.0032,2.46,33.29,1111122 
SCCF RECON,ioos:station:SCCF:13:1,2011-04-11T16:00:00Z,26.5255,-82.0032,2.45,33.63,1111122 
SCCF RECON,ioos:station:SCCF:13:1,2011-04-11T17:00:00Z,26.5255,-82.0032,2.425,33.61,1111122 
SCCF RECON,ioos:station:SCCF:13:1,2011-04-11T18:00:00Z,26.5255,-82.0032,2.44,33.63,1111122 
SCCF RECON,ioos:station:SCCF:13:1,2011-04-11T19:00:00Z,26.5255,-82.0032,2.47,33.62,1111122 